Cloud_Cover
100 100 100 100 96 15 4 99 100 100 100 36 7 94 39 0 5 41 11 90 38 14 5 50 19 5 5 5 5 3 4 34 52 71 100 9 5 1 0 0 0 0 4 3 1
92 100 100 100 100 100 100 100 100 100 100 100 99 12 100 26 0 0 2 15 5 5 5 16 25 4 4 2 4 0 0 10 16 16 82 6 5 15 5 5 3 3 0 5 55
14 15 68 78 29 59 75 100 100 100 100 100 98 100 75 64 4 0 0 0 0 5 4 5 9 3 0 4 5 5 0 0 5 5 6 19 4 5 23 5 3 0 2 79 87
5 0 5 7 5 17 10 32 96 12 31 95 100 98 100 52 56 1 2 0 0 0 0 0 0 0 1 0 0 4 4 1 18 15 1 5 36 5 5 44 6 5 0 0 59
5 5 2 0 0 0 0 0 20 5 43 49 100 100 78 42 5 0 0 0 0 0 0 0 0 0 0 0 0 0 0 0 47 5 2 1 4 3 5 5 5 5 10 14 5
5 5 5 1 0 0 0 0 2 5 5 5 100 100 85 94 1 0 0 0 0 0 0 0 0 0 0 0 0 0 0 0 0 3 3 2 0 0 0 2 5 19 98 99 13
5 14 5 0 0 4 5 2 1 22 6 12 100 100 86 85 2 0 0 0 0 0 0 0 0 0 0 0 0 0 0 0 0 0 0 5 5 2 0 0 0 0 3 14 49
5 4 1 0 1 5 0 0 0 0 72 58 93 100 59 5 5 0 0 0 0 0 0 0 0 0 0 0 0 0 0 0 0 0 0 0 0 0 0 0 0 0 0 0 0
12 1 0 3 3 0 0 0 5 10 76 100 98 96 24 5 0 0 0 0 0 0 0 0 0 0 0 0 0 0 0 0 0 0 0 0 0 0 0 0 0 0 0 0 0
70 0 0 1 2 0 4 5 5 9 42 70 46 61 0 1 0 0 0 0 0 0 0 0 28 0 0 0 0 3 4 5 3 16 14 5 0 0 0 0 0 0 0 0 0
0 3 0 0 39 6 19 4 0 3 4 4 0 0 0 0 0 0 0 0 0 0 0 2 95 2 1 2 94 72 48 5 5 35 52 9 0 0 0 0 0 0 0 0 5
0 0 24 0 0 0 0 0 4 37 73 0 0 0 0 0 0 0 0 0 0 0 0 0 3 22 0 0 4 100 79 37 5 51 18 75 2 0 0 0 0 0 0 0 0
0 0 4 2 0 0 0 0 2 0 32 0 0 0 0 1 6 36 2 0 8 0 0 0 0 11 5 5 5 76 100 100 100 92 93 97 83 5 0 0 0 2 0 0 5
0 0 0 27 0 0 0 0 0 0 44 0 0 0 0 4 55 71 54 66 5 3 59 22 0 0 0 2 4 69 100 100 100 100 98 100 19 86 58 2 1 5 4 1 1
0 0 6 10 39 23 14 1 5 50 4 0 1 4 4 26 28 88 100 100 100 93 23 0 0 0 6 3 37 8 100 100 100 100 89 63 100 17 43 9 41 8 79 36 8
0 0 1 0 0 0 64 5 40 96 34 0 2 48 20 44 46 37 5 48 100 95 100 37 85 90 2 9 10 66 100 100 100 100 99 6 41 73 100 100 100 99 100 97 84
0 0 0 0 1 6 68 20 77 99 0 53 64 5 82 22 3 2 24 36 99 87 100 100 59 56 70 96 92 51 100 100 100 90 16 98 100 100 26 47 97 95 68 100 73
0 0 4 5 0 0 17 98 100 92 92 100 96 100 99 98 87 6 5 38 96 58 89 100 95 55 30 52 74 9 13 98 60 4 5 6 12 56 78 100 100 100 100 100 100
2 5 0 0 0 12 63 100 100 100 100 100 100 96 100 80 89 100 74 32 5 1 52 100 100 100 84 100 47 99 98 78 100 100 100 88 100 100 10 50 100 100 100 100 100
5 1 0 0 3 35 100 82 99 100 100 100 100 89 100 100 100 100 100 100 100 99 100 100 100 96 94 96 100 83 18 77 100 98 100 71 81 100 5 67 98 100 100 100 100
2 2 0 4 0 2 61 63 100 100 100 100 100 100 100 100 100 100 100 100 100 100 100 100 100 100 100 51 41 100 100 100 80 92 100 100 100 100 86 100 100 100 100 100 100
75 2 0 0 3 14 79 100 100 100 100 100 100 100 100 100 100 100 86 99 77 100 100 100 66 92 100 100 97 100 65 6 9 12 4 36 100 100 100 100 100 100 100 100 100
65 94 0 0 70 59 66 100 100 100 100 100 100 100 99 98 100 96 95 100 95 100 98 98 82 63 90 100 100 100 100 100 15 6 4 1 48 100 82 100 100 100 100 100 100
52 39 3 1 66 96 87 100 100 100 100 100 99 100 82 64 77 100 100 100 100 93 82 97 45 99 100 100 100 100 100 100 82 5 0 0 84 100 100 100 100 100 100 100 100
79 55 82 55 39 98 99 88 96 100 78 71 96 100 100 99 99 86 100 92 80 100 99 100 100 100 100 98 100 100 100 100 92 58 5 4 12 100 100 100 100 100 100 100 57
100 100 100 100 100 100 88 97 88 57 99 55 100 100 100 100 100 100 100 100 100 100 100 100 100 100 100 100 100 100 100 100 100 100 69 54 69 80 82 100 100 100 100 100 41
100 100 100 80 98 100 67 100 88 100 100 100 100 100 100 100 100 100 100 100 100 100 100 100 100 100 100 100 100 100 100 100 100 100 100 100 84 82 100 100 100 100 100 90 99